CW3821 Weather Reports


Display with metric or nautical units.
time (UTC)temp
F
wind
direction
speed
MPH
gust
MPH
rain 1hr
in
rain 24hr
in
rain mn
in
humidity
%
barometer
mb
20180919181324 83 76 6.0 10.0 0.00 0.00 0.00 21 1011.5
20180919180831 83 360 5.0 8.0 0.00 0.00 0.00 21 1011.5
20180919180336 83 27 4.0 8.0 0.00 0.00 0.00 19 1012.1
20180919175821 83 31 3.0 8.0 0.00 0.00 0.00 20 1012.1
20180919174807 84 18 5.0 6.0 0.00 0.00 0.00 16 1012.2
20180919174307 84 28 2.0 5.0 0.00 0.00 0.00 17 1012.2
20180919173810 84 28 4.0 7.0 0.00 0.00 0.00 17 1012.2
20180919173400 85 8 4.0 7.0 0.00 0.00 0.00 18 1012.0
20180919172804 85 109 2.0 3.0 0.00 0.00 0.00 16 1012.0
20180919172356 85 107 2.0 3.0 0.00 0.00 0.00 15 1012.0
20180919171846 85 109 1.0 2.0 0.00 0.00 0.00 17 1012.3
20180919171334 84 109 1.0 2.0 0.00 0.00 0.00 18 1012.3
20180919170831 84 109 0.0 2.0 0.00 0.00 0.00 18 1012.3
20180919165853 83 100 1.0 2.0 0.00 0.00 0.00 20 1011.7
20180919165402 83 95 0.0 4.0 0.00 0.00 0.00 22 1011.7
20180919164805 82 102 2.0 4.0 0.00 0.00 0.00 21 1012.1
20180919164313 82 121 1.0 4.0 0.00 0.00 0.00 21 1012.1
20180919163815 81 120 2.0 4.0 0.00 0.00 0.00 21 1012.1
20180919163319 81 117 2.0 3.0 0.00 0.00 0.00 21 1012.1
20180919162825 80 100 1.0 5.0 0.00 0.00 0.00 24 1012.1
20180919162331 80 102 3.0 5.0 0.00 0.00 0.00 24 1012.1
20180919161837 80 95 3.0 5.0 0.00 0.00 0.00 23 1012.4
20180919161347 80 126 0.0 3.0 0.00 0.00 0.00 24 1012.4
20180919160856 80 127 1.0 3.0 0.00 0.00 0.00 24 1012.4
20180919160355 79 128 1.0 3.0 0.00 0.00 0.00 25 1012.0
20180919155308 78 131 3.0 3.0 0.00 0.00 0.00 27 1012.0
20180919154902 78 133 1.0 2.0 0.00 0.00 0.00 27 1011.9
20180919154305 77 131 2.0 2.0 0.00 0.00 0.00 27 1011.9
20180919153858 76 133 0.0 1.0 0.00 0.00 0.00 28 1011.9
20180919153346 75 131 0.0 3.0 0.00 0.00 0.00 29 1012.1
20180919152827 74 131 2.0 3.0 0.00 0.00 0.00 30 1012.1
20180919151851 73 104 3.0 4.0 0.00 0.00 0.00 32 1012.0
20180919151339 72 123 1.0 3.0 0.00 0.00 0.00 35 1012.0
20180919150828 72 100 0.0 3.0 0.00 0.00 0.00 35 1012.0
20180919150332 71 102 3.0 3.0 0.00 0.00 0.00 36 1012.3
20180919145815 70 178 1.0 3.0 0.00 0.00 0.00 37 1012.3
20180919145316 69 179 0.0 2.0 0.00 0.00 0.00 38 1012.3
20180919144820 69 179 1.0 2.0 0.00 0.00 0.00 38 1011.9
20180919144327 68 227 0.0 2.0 0.00 0.00 0.00 36 1011.9
20180919143829 67 227 1.0 2.0 0.00 0.00 0.00 38 1011.9
20180919142810 66 222 2.0 2.0 0.00 0.00 0.00 42 1012.4
20180919142316 65 224 1.0 1.0 0.00 0.00 0.00 42 1012.4
20180919141821 63 224 0.0 1.0 0.00 0.00 0.00 46 1011.8
20180919141322 62 223 0.0 3.0 0.00 0.00 0.00 49 1011.8
20180919140830 62 223 1.0 3.0 0.00 0.00 0.00 51 1011.8
20180919140334 62 226 0.0 0.0 0.00 0.00 0.00 50 1012.3
20180919135819 61 226 0.0 0.0 0.00 0.00 0.00 51 1012.3
20180919135328 61 227 0.0 0.0 0.00 0.00 0.00 53 1012.3
20180919134830 60 226 0.0 0.0 0.00 0.00 0.00 55 1012.3
20180919133808 59 226 0.0 0.0 0.00 0.00 0.00 58 1012.3
20180919133401 59 226 0.0 0.0 0.00 0.00 0.00 58 1012.2
20180919132849 59 226 0.0 0.0 0.00 0.00 0.00 58 1012.2
20180919132338 59 226 0.0 0.0 0.00 0.00 0.00 59 1012.2
20180919131843 58 226 0.0 0.0 0.00 0.00 0.00 59 1011.4
20180919131343 58 226 0.0 0.0 0.00 0.00 0.00 60 1011.4
20180919130843 58 226 0.0 0.0 0.00 0.00 0.00 59 1011.4
20180919130343 58 226 0.0 0.0 0.00 0.00 0.00 59 1011.5
20180919125311 58 226 0.0 0.0 0.00 0.00 0.00 60 1011.5
20180919124820 58 226 0.0 0.0 0.00 0.00 0.00 61 1011.4
20180919124325 58 226 0.0 0.0 0.00 0.00 0.00 61 1011.4
20180919123825 58 226 0.0 3.0 0.00 0.00 0.00 61 1011.4
20180919122807 58 301 0.0 3.0 0.00 0.00 0.00 58 1011.3
20180919122316 58 301 1.0 3.0 0.00 0.00 0.00 58 1011.3
20180919121825 58 223 2.0 5.0 0.00 0.00 0.00 61 1011.3
20180919121332 58 222 2.0 5.0 0.00 0.00 0.00 59 1011.3
20180919120836 58 285 1.0 2.0 0.00 0.00 0.00 58 1011.3
20180919120339 58 233 2.0 2.0 0.00 0.00 0.00 61 1011.5
20180919115820 58 233 2.0 2.0 0.00 0.00 0.00 58 1011.5
20180919114806 59 233 0.0 2.0 0.00 0.00 0.00 57 1011.1
20180919114359 59 233 1.0 2.0 0.00 0.00 0.00 57 1011.1
20180919113846 58 233 0.0 2.0 0.00 0.00 0.00 59 1011.1
20180919113345 58 233 0.0 2.0 0.00 0.00 0.00 60 1011.5
20180919112827 59 233 2.0 2.0 0.00 0.00 0.00 58 1011.5
20180919111855 60 233 0.0 1.0 0.00 0.00 0.00 55 1011.4
20180919111343 60 233 0.0 1.0 0.00 0.00 0.00 57 1011.4
20180919110830 60 233 0.0 1.0 0.00 0.00 0.00 57 1011.4
20180919110334 60 233 0.0 0.0 0.00 0.00 0.00 57 1011.5
20180919105814 60 233 0.0 2.0 0.00 0.00 0.00 57 1011.5
20180919105317 60 233 0.0 2.0 0.00 0.00 0.00 58 1011.5
20180919104822 60 233 1.0 2.0 0.00 0.00 0.00 58 1011.4
20180919103812 61 233 2.0 2.0 0.00 0.00 0.00 57 1011.4
20180919103322 61 233 0.0 2.0 0.00 0.00 0.00 56 1011.4
20180919102829 61 233 0.0 2.0 0.00 0.00 0.00 55 1011.4
20180919102330 61 233 0.0 2.0 0.00 0.00 0.00 56 1011.4
20180919101310 61 233 0.0 0.0 0.00 0.00 0.00 57 1011.5
20180919100818 61 233 0.0 0.0 0.00 0.00 0.00 58 1011.5
20180919100320 61 233 0.0 0.0 0.00 0.00 0.00 57 1011.6
20180919095813 62 233 0.0 0.0 0.00 0.00 0.00 57 1011.6
20180919095316 61 233 0.0 0.0 0.00 0.00 0.00 60 1011.6
20180919094819 61 233 0.0 0.0 0.00 0.00 0.00 58 1011.1
20180919094323 62 233 0.0 0.0 0.00 0.00 0.00 58 1011.1
20180919093308 62 233 0.0 0.0 0.00 0.00 0.00 58 1011.2
20180919092818 62 233 0.0 0.0 0.00 0.00 0.00 57 1011.2
20180919092328 62 233 0.0 0.0 0.00 0.00 0.00 56 1011.2
20180919091829 62 233 0.0 0.0 0.00 0.00 0.00 57 1011.3
20180919090806 63 233 0.0 0.0 0.00 0.00 0.00 57 1011.3
20180919090357 63 233 0.0 0.0 0.00 0.00 0.00 56 1011.8
20180919085822 63 233 0.0 0.0 0.00 0.00 0.00 54 1011.8
20180919084854 63 233 0.0 0.0 0.00 0.00 0.00 55 1011.7
20180919084333 64 233 0.0 0.0 0.00 0.00 0.00 54 1011.7
20180919083816 64 233 0.0 0.0 0.00 0.00 0.00 54 1011.7
20180919083317 64 233 0.0 0.0 0.00 0.00 0.00 52 1011.9
20180919082827 64 233 0.0 0.0 0.00 0.00 0.00 53 1011.9
20180919082336 64 233 0.0 0.0 0.00 0.00 0.00 53 1011.9
20180919081845 64 233 0.0 0.0 0.00 0.00 0.00 56 1011.8
20180919081353 64 233 0.0 0.0 0.00 0.00 0.00 55 1011.8
20180919080852 64 233 0.0 0.0 0.00 0.00 0.00 56 1011.8
20180919080352 64 233 0.0 0.0 0.00 0.00 0.00 54 1011.7
20180919075820 65 233 0.0 2.0 0.00 0.00 0.00 54 1011.7
20180919075314 65 233 0.0 2.0 0.00 0.00 0.00 53 1011.7
20180919074808 65 233 0.0 1.0 0.00 0.00 0.00 51 1011.2
20180919074319 65 233 0.0 0.0 0.00 0.00 0.00 51 1011.2
20180919073813 65 233 0.0 0.0 0.00 0.00 0.00 52 1011.2
20180919073309 66 234 0.0 3.0 0.00 0.00 0.00 51 1011.2
20180919072823 66 234 0.0 3.0 0.00 0.00 0.00 49 1011.2
20180919072318 66 230 1.0 2.0 0.00 0.00 0.00 49 1011.2
20180919071813 66 230 0.0 3.0 0.00 0.00 0.00 49 1011.1
20180919071308 66 230 1.0 3.0 0.00 0.00 0.00 48 1011.1
20180919070822 67 230 0.0 0.0 0.00 0.00 0.00 48 1011.1
20180919070315 67 230 0.0 0.0 0.00 0.00 0.00 47 1011.4
20180919065808 67 230 0.0 0.0 0.00 0.00 0.00 46 1011.4
20180919065323 68 230 0.0 0.0 0.00 0.00 0.00 46 1011.4
20180919064818 68 230 0.0 0.0 0.00 0.00 0.00 45 1011.3
20180919064312 68 230 0.0 2.0 0.00 0.00 0.00 44 1011.3
20180919063807 68 230 0.0 3.0 0.00 0.00 0.00 43 1011.3
20180919063321 68 230 2.0 3.0 0.00 0.00 0.00 43 1011.5
20180919062816 68 230 2.0 3.0 0.00 0.00 0.00 43 1011.5
20180919062311 68 229 1.0 2.0 0.00 0.00 0.00 43 1011.5
20180919061806 68 229 0.0 0.0 0.00 0.00 0.00 42 1011.6
20180919061324 68 229 0.0 1.0 0.00 0.00 0.00 43 1011.6
20180919060818 68 229 0.0 2.0 0.00 0.00 0.00 45 1011.6
20180919060312 68 229 1.0 2.0 0.00 0.00 0.00 45 1011.6
20180919055838 68 229 1.0 2.0 0.00 0.00 0.00 46 1011.6
20180919055346 69 229 0.0 1.0 0.00 0.00 0.00 45 1011.6
20180919054852 69 229 0.0 1.0 0.00 0.00 0.00 45 1011.1
20180919054401 69 229 0.0 4.0 0.00 0.00 0.00 44 1011.1
20180919053902 71 229 1.0 4.0 0.00 0.00 0.00 42 1011.1
20180919053404 72 232 0.0 0.0 0.00 0.00 0.00 38 1010.7
20180919052805 73 232 0.0 0.0 0.00 0.00 0.00 37 1010.7
20180919052314 73 232 0.0 2.0 0.00 0.00 0.00 37 1010.7
20180919051822 73 232 1.0 2.0 0.00 0.00 0.00 35 1011.2
20180919051331 72 230 0.0 1.0 0.00 0.00 0.00 35 1011.2
20180919050839 72 230 0.0 0.0 0.00 0.00 0.00 38 1011.2
20180919050338 72 230 0.0 0.0 0.00 0.00 0.00 38 1010.9
20180919045818 73 230 0.0 0.0 0.00 0.00 0.00 37 1010.9
20180919045324 74 230 0.0 0.0 0.00 0.00 0.00 35 1010.9
20180919044356 74 230 0.0 0.0 0.00 0.00 0.00 33 1011.0
20180919043844 74 230 0.0 2.0 0.00 0.00 0.00 33 1011.0
20180919043330 74 230 1.0 2.0 0.00 0.00 0.00 34 1011.0
20180919042305 75 308 0.0 2.0 0.00 0.00 0.00 33 1011.0
20180919041858 75 308 0.0 2.0 0.00 0.00 0.00 32 1011.3
20180919041345 76 308 1.0 2.0 0.00 0.00 0.00 31 1011.3
20180919040831 76 308 1.0 6.0 0.00 0.00 0.00 31 1011.3
20180919040334 76 291 3.0 6.0 0.00 0.00 0.00 31 1011.1
20180919035812 76 302 3.0 7.0 0.00 0.00 0.00 31 1011.1
20180919035313 76 302 4.0 7.0 0.00 0.00 0.00 31 1011.1
20180919034817 76 281 5.0 7.0 0.00 0.00 0.00 31 1011.1
20180919034324 76 305 6.0 7.0 0.00 0.00 0.00 31 1011.1
20180919033312 76 306 5.0 7.0 0.00 0.00 0.00 31 1011.1
20180919032820 76 313 6.0 7.0 0.00 0.00 0.00 31 1011.1
20180919032319 76 306 5.0 7.0 0.00 0.00 0.00 31 1011.1
20180919031823 76 295 6.0 7.0 0.00 0.00 0.00 31 1010.9
20180919031328 76 284 4.0 6.0 0.00 0.00 0.00 32 1010.9
20180919030838 76 305 5.0 6.0 0.00 0.00 0.00 32 1010.9
20180919030346 77 295 3.0 6.0 0.00 0.00 0.00 32 1011.0
20180919025307 77 305 2.0 3.0 0.00 0.00 0.00 31 1011.0
20180919024810 78 311 2.0 3.0 0.00 0.00 0.00 30 1010.1
20180919024311 78 311 0.0 5.0 0.00 0.00 0.00 30 1010.1
20180919023902 79 312 4.0 6.0 0.00 0.00 0.00 30 1010.1
20180919023349 79 299 5.0 6.0 0.00 0.00 0.00 29 1010.5
20180919022838 79 343 2.0 6.0 0.00 0.00 0.00 29 1010.5
20180919022326 80 342 4.0 6.0 0.00 0.00 0.00 29 1010.5
20180919021828 80 301 5.0 6.0 0.00 0.00 0.00 27 1010.1
20180919021310 81 316 5.0 6.0 0.00 0.00 0.00 27 1010.1
20180919020811 82 356 2.0 6.0 0.00 0.00 0.00 26 1010.1
20180919020311 83 337 3.0 5.0 0.00 0.00 0.00 24 1010.3
20180919015805 83 296 2.0 5.0 0.00 0.00 0.00 23 1010.3
20180919015314 83 357 2.0 5.0 0.00 0.00 0.00 23 1010.3
20180919014824 83 360 1.0 5.0 0.00 0.00 0.00 23 1010.3
20180919014328 83 1 3.0 5.0 0.00 0.00 0.00 23 1010.3
20180919013306 83 323 3.0 5.0 0.00 0.00 0.00 24 1010.3
20180919012814 84 319 3.0 5.0 0.00 0.00 0.00 23 1010.3
20180919012321 84 318 1.0 2.0 0.00 0.00 0.00 23 1010.3
20180919011831 84 54 2.0 2.0 0.00 0.00 0.00 23 1010.2
20180919011338 84 309 1.0 2.0 0.00 0.00 0.00 23 1010.2
20180919010838 84 309 1.0 2.0 0.00 0.00 0.00 24 1010.2
20180919010338 85 309 1.0 2.0 0.00 0.00 0.00 24 1009.9
20180919005822 85 309 2.0 2.0 0.00 0.00 0.00 25 1009.9
20180919004855 86 306 0.0 5.0 0.00 0.00 0.00 23 1009.9
20180919004342 86 306 1.0 5.0 0.00 0.00 0.00 23 1009.9
20180919003829 86 302 1.0 2.0 0.00 0.00 0.00 24 1009.9
20180919003328 86 302 1.0 3.0 0.00 0.00 0.00 25 1010.4
20180919002828 86 301 1.0 3.0 0.00 0.00 0.00 25 1010.4
20180919002328 86 301 1.0 6.0 0.00 0.00 0.00 25 1010.4
20180919001835 86 296 4.0 6.0 0.00 0.00 0.00 24 1010.3
20180919001343 86 278 0.0 3.0 0.00 0.00 0.00 25 1010.3
20180919000852 86 278 3.0 3.0 0.00 0.00 0.00 24 1010.3
20180919000356 86 130 1.0 3.0 0.00 0.00 0.00 23 1010.1
20180918235833 87 130 1.0 1.0 0.00 0.00 0.00 24 1010.1
20180918235336 87 130 0.0 1.0 0.00 0.00 0.00 25 1010.1
20180918234842 87 130 1.0 1.0 0.00 0.00 0.00 22 1010.3
20180918234352 87 131 0.0 1.0 0.00 0.00 0.00 22 1010.3
20180918233902 87 131 0.0 2.0 0.00 0.00 0.00 22 1010.3
20180918233306 87 131 2.0 2.0 0.00 0.00 0.00 22 1010.0
20180918232807 86 128 0.0 5.0 0.00 0.00 0.00 22 1010.0
20180918232309 86 130 3.0 5.0 0.00 0.00 0.00 22 1010.0
20180918231858 86 112 3.0 3.0 0.00 0.00 0.00 22 1010.1
20180918231343 86 86 2.0 7.0 0.00 0.00 0.00 22 1010.1
20180918230315 86 92 2.0 3.0 0.00 0.00 0.00 23 1010.2
20180918225855 86 92 2.0 3.0 0.00 0.00 0.00 22 1010.2
20180918225357 86 92 2.0 7.0 0.00 0.00 0.00 22 1010.2
20180918224859 86 75 5.0 7.0 0.00 0.00 0.00 21 1010.5
20180918224402 86 86 2.0 4.0 0.00 0.00 0.00 22 1010.5
20180918223807 86 51 1.0 4.0 0.00 0.00 0.00 22 1010.5
20180918223313 86 62 4.0 4.0 0.00 0.00 0.00 22 1011.1
20180918222822 87 106 3.0 5.0 0.00 0.00 0.00 21 1011.1
20180918222331 87 76 3.0 5.0 0.00 0.00 0.00 22 1011.1
20180918221831 86 23 0.0 5.0 0.00 0.00 0.00 23 1010.5
20180918221332 86 88 2.0 5.0 0.00 0.00 0.00 23 1010.5
20180918220909 86 97 3.0 5.0 0.00 0.00 0.00 22 1010.5
20180918220344 86 42 2.0 3.0 0.00 0.00 0.00 22 1011.1
20180918215310 86 31 1.0 3.0 0.00 0.00 0.00 22 1011.1
20180918214812 86 31 1.0 5.0 0.00 0.00 0.00 22 1011.1
20180918214315 86 27 4.0 5.0 0.00 0.00 0.00 21 1011.1
20180918213817 86 31 3.0 6.0 0.00 0.00 0.00 21 1011.1
20180918213322 87 30 5.0 6.0 0.00 0.00 0.00 20 1011.2
20180918212311 86 24 1.0 6.0 0.00 0.00 0.00 20 1011.2
20180918211905 87 35 6.0 6.0 0.00 0.00 0.00 21 1011.5
20180918211429 87 48 2.0 4.0 0.00 0.00 0.00 20 1011.5
20180918210852 87 48 1.0 3.0 0.00 0.00 0.00 21 1011.5
20180918210137 87 41 2.0 4.0 0.00 0.00 0.00 20 1011.3
20180918205301 87 32 2.0 3.0 0.00 0.00 0.00 20 1012.2
20180918202828 87 32 0.0 1.0 0.00 0.00 0.00 23 1011.9
20180918202335 87 32 1.0 3.0 0.00 0.00 0.00 22 1011.9
20180918201824 87 32 2.0 3.0 0.00 0.00 0.00 22 1012.0
20180918201332 87 32 1.0 3.0 0.00 0.00 0.00 22 1012.0
20180918200842 87 28 2.0 3.0 0.00 0.00 0.00 22 1012.0
20180918200341 86 25 1.0 3.0 0.00 0.00 0.00 22 1012.8
20180918195822 86 28 2.0 3.0 0.00 0.00 0.00 24 1012.8
20180918194812 86 32 3.0 4.0 0.00 0.00 0.00 24 1013.3
20180918194320 85 30 2.0 7.0 0.00 0.00 0.00 23 1013.3
20180918193306 84 78 1.0 6.0 0.00 0.00 0.00 26 1013.1
20180918192808 84 344 2.0 6.0 0.00 0.00 0.00 26 1013.1
20180918192310 83 34 2.0 4.0 0.00 0.00 0.00 26 1013.1
20180918191903 84 23 2.0 7.0 0.00 0.00 0.00 26 1013.4
20180918191350 83 31 5.0 7.0 0.00 0.00 0.00 26 1013.4
20180918190839 83 59 4.0 8.0 0.00 0.00 0.00 26 1013.4
20180918190340 83 37 2.0 8.0 0.00 0.00 0.00 26 1013.8
20180918185820 83 24 3.0 6.0 0.00 0.00 0.00 26 1013.8
20180918185319 83 42 5.0 6.0 0.00 0.00 0.00 25 1013.8
20180918184825 83 100 2.0 6.0 0.00 0.00 0.00 26 1014.0
20180918183812 82 61 2.0 7.0 0.00 0.00 0.00 27 1014.0
20180918183320 82 56 3.0 6.0 0.00 0.00 0.00 26 1014.1
20180918182829 81 69 2.0 6.0 0.00 0.00 0.00 26 1014.1
20180918181806 81 92 2.0 8.0 0.00 0.00 0.00 28 1014.5